Location: Centerville
(32.8776°N, 96.6203°W)
Time: 06:46:49
(UTC+00:00)

ATLAS 5 CENTAUR R/B - Visible Passes

Search period start: 26 October 2021 00:00
Search period end: 05 November 2021 00:00
Orbit: 270 x 12583 km, 20.2° (Epoch: 25 October)

Date Brightness Start Highest point End Pass type
(mag) Time Alt. Az. Time Alt. Az. Time Alt. Az.
26 Oct 4.5 09:58:16 42° SW 10:05:14 59° SSE 11:22:00 10° ESE visible
27 Oct 4.5 10:00:08 42° SW 10:07:07 59° SSE 11:23:39 10° ESE visible
28 Oct 4.5 10:01:58 42° SW 10:08:56 59° S 11:25:13 10° ESE visible
29 Oct 4.5 10:03:45 41° SW 10:10:45 59° S 11:26:42 10° ESE visible
30 Oct 4.4 10:05:30 41° SW 10:12:31 58° S 11:28:06 10° ESE visible
31 Oct 4.4 10:07:12 41° SW 10:14:15 58° S 11:29:24 10° ESE visible
01 Nov 4.4 10:08:52 40° SW 10:15:56 58° S 11:30:38 10° ESE visible
02 Nov 4.5 10:10:30 40° SW 10:17:36 57° S 11:31:47 10° ESE visible
03 Nov 4.5 10:12:06 40° SW 10:19:13 56° S 11:32:50 10° ESE visible
04 Nov 4.5 10:13:39 39° SW 10:20:48 56° S 11:33:48 10° ESE visible
